Scappoose, OR

6:59 AM PST on February 12, 2016 (GMT -0800)
Scappoose Industrial

Weather History for KSPB - January, 2014

Change the Weather History Date:

Tuesday, January 28, 2014

  Actual Average Record
Temperature  
Mean Temperature 42 °F -  
Max Temperature 44 °F - 59 °F (2015)
Min Temperature 38 °F - 21 °F (2007)
Degree Days  
Heating Degree Days 24    
Month to date heating degree days 694  
Since 1 July heating degree days 2830  
Cooling Degree Days 0    
Month to date cooling degree days 0  
Year to date cooling degree days 0  
Moisture  
Dew Point 35 °F    
Average Humidity 83    
Maximum Humidity 100    
Minimum Humidity 65    
Precipitation  
Precipitation 0.28 in - 1.08 in (2006)
Month to date precipitation 2.33  
Year to date precipitation 2.33  
Sea Level Pressure  
Sea Level Pressure 30.16 in    
Wind  
Wind Speed 5 mph (South)    
Max Wind Speed 12 mph    
Max Gust Speed 15 mph    
Visibility 7 miles    
Events Rain    
T = Trace of Precipitation, MM = Missing Value Source: NWS Daily Summary

Daily Weather History Graph

Daily Weather History Graph

Search for Another Location

Airport or City:

Trip Planner

Search our weather history database for the weather conditions in past years. The results will help you decide how hot, cold, wet, or windy it might be!

Date:

Astronomy

Jan. 28, 2014 Rise Set
Actual Time 7:37 AM PST 5:11 PM PST
Civil Twilight 7:05 AM PST 5:43 PM PST
Nautical Twilight 6:29 AM PST 6:19 PM PST
Astronomical Twilight 5:54 AM PST 6:54 PM PST
Moon 5:26 AM PST (1/28) 3:06 PM PST (1/28)
Length of Visible Light 10h 38m
Length of Day
9h 34m
Waning Crescent, 6% of the Moon is Illuminated
Jan 28
Waning Crescent
Jan 30
New
Feb 6
First Quarter
Feb 14
Full
Feb 22
Last Quarter

Hourly Weather History & Observations

Time (PST) Temp. Windchill Dew Point Humidity Pressure Visibility Wind Dir Wind Speed Gust Speed Precip Events Conditions
12:53 AM 39.0 °F 35.7 °F 30.9 °F 73% 30.27 in 10.0 mi South 4.6 mph - N/A   Overcast
1:53 AM 39.0 °F - 30.9 °F 73% 30.27 in 10.0 mi Calm Calm - N/A   Overcast
2:53 AM 39.0 °F 36.8 °F 30.0 °F 70% 30.26 in 10.0 mi South 3.5 mph - N/A   Overcast
3:53 AM 39.0 °F 36.8 °F 34.0 °F 82% 30.25 in 10.0 mi South 3.5 mph - N/A   Overcast
4:53 AM 39.9 °F 36.7 °F 30.0 °F 68% 30.25 in 10.0 mi South 4.6 mph - N/A   Overcast
5:53 AM 39.9 °F 37.8 °F 30.0 °F 68% 30.25 in 10.0 mi SSE 3.5 mph - N/A   Overcast
6:34 AM 39.0 °F 36.8 °F 30.0 °F 70% 30.25 in 10.0 mi SSE 3.5 mph - N/A   Overcast
6:53 AM 39.0 °F 36.8 °F 30.0 °F 70% 30.25 in 10.0 mi SSE 3.5 mph - N/A   Overcast
7:53 AM 39.0 °F 35.7 °F 32.0 °F 76% 30.26 in 10.0 mi SSE 4.6 mph - N/A   Overcast
8:53 AM 39.0 °F 36.8 °F 33.1 °F 79% 30.27 in 10.0 mi South 3.5 mph - N/A   Overcast
9:53 AM 39.9 °F 37.8 °F 33.1 °F 77% 30.27 in 10.0 mi South 3.5 mph - N/A   Overcast
10:53 AM 42.1 °F 37.7 °F 33.1 °F 70% 30.26 in 10.0 mi South 6.9 mph - N/A   Overcast
11:53 AM 42.1 °F 37.1 °F 33.1 °F 70% 30.22 in 10.0 mi South 8.1 mph - N/A   Overcast
12:53 PM 43.0 °F 39.5 °F 34.0 °F 71% 30.19 in 10.0 mi ESE 5.8 mph - N/A   Overcast
1:53 PM 44.1 °F - 34.0 °F 68% 30.16 in 10.0 mi Calm Calm - N/A   Overcast
2:53 PM 43.0 °F 41.3 °F 37.0 °F 80% 30.16 in 6.0 mi South 3.5 mph - 0.01 in Rain Light Rain
3:53 PM 42.1 °F 40.2 °F 37.9 °F 85% 30.14 in 5.0 mi South 3.5 mph - 0.03 in Rain Light Rain
4:53 PM 39.9 °F 36.7 °F 39.0 °F 97% 30.13 in 5.0 mi South 4.6 mph - 0.07 in Rain Light Rain
5:53 PM 39.9 °F 36.7 °F 37.9 °F 93% 30.11 in 5.0 mi South 4.6 mph - 0.08 in Rain Light Rain
6:45 PM 39.0 °F 35.7 °F 39.0 °F 100% 30.07 in 2.5 mi South 4.6 mph - 0.03 in Rain Light Rain
6:53 PM 39.0 °F 34.8 °F 37.9 °F 96% 30.07 in 4.0 mi South 5.8 mph - 0.04 in Rain Light Rain
7:53 PM 39.0 °F 34.8 °F 37.9 °F 96% 30.06 in 5.0 mi SSE 5.8 mph - 0.01 in Rain Light Rain
8:09 PM 39.0 °F 34.8 °F 39.0 °F 100% 30.05 in 3.0 mi South 5.8 mph - 0.01 in Rain Light Rain
8:22 PM 39.9 °F 36.7 °F 39.0 °F 97% 30.05 in 3.0 mi Variable 4.6 mph - 0.02 in Rain Light Rain
8:43 PM 39.9 °F 35.1 °F 39.0 °F 97% 30.04 in 5.0 mi South 6.9 mph - 0.02 in Rain Light Rain
8:53 PM 39.9 °F 35.1 °F 39.0 °F 97% 30.05 in 6.0 mi SSE 6.9 mph - 0.02 in Rain Light Rain
9:53 PM 39.0 °F 34.0 °F 37.9 °F 96% 30.03 in 6.0 mi SSE 6.9 mph - 0.00 in Rain Light Rain
10:53 PM 39.9 °F 33.9 °F 39.0 °F 97% 29.99 in 4.0 mi SE 9.2 mph - 0.01 in Rain Light Rain
11:53 PM 39.0 °F 34.8 °F 39.0 °F 100% 29.98 in 5.0 mi SSE 5.8 mph - 0.01 in Rain Light Rain